Погода в Доулю

Тайвань     23°41′49″N   120°31′40″E
темп.,
°C
ветер,
м/с
пор.,
м/с
влажн.,
%
обл.,
%
осадки,
мм/ч
давл.,
гПа
погр.,
м
18 мая, вт
вт1823:00+29з1262100 0.0 1011269
02:00+28зюз116788 0.0 1010268
05:00+27ююв017170 0.0 1011177
08:00+30зюз125993 0.0 1012907
11:00+36зюз44391 0.0 10102005
14:00+36з764012 0.0 10081762
17:00+33з434699 0.1 10091586
20:00+30зсз215990 0.1 1010582
19 мая, ср
ср1923:00+29з2165100 0.0 1011404
02:00+28юз1266100 0.0 1009341
05:00+27ююв016998 0.0 1010270
08:00+30з115843 0.0 1011937
11:00+35зюз44375 0.0 10092079
14:00+36з874010 0.0 10071966
17:00+31зюз455895 1.0 10081066
20:00+30юз146842 2.6 1009532
20 мая, чт
чт2023:00+28ююз367316 0.1 1010552
02:00+27ю257146 0.1 1009423
05:00+26ю147339 0.0 1008276
08:00+30ююз355896 0.0 1009859
11:00+36юз7833100 0.0 10081944
14:00+36зюз8836100 0.0 10071923
17:00+34зюз774197 0.0 10061265
20:00+30зюз465799 0.0 1008593
21 мая, пт
пт2123:00+29ююз356530 0.0 1009539
02:00+28ююз3672100 0.0 1008479
05:00+27ю2472100 0.0 1008293
08:00+31ююз345428 0.0 1009898
11:00+36зюз553614 0.0 10071832
14:00+36з653640 0.0 10061833
17:00+33з5446100 0.0 10061285
20:00+31зюз3355100 0.0 1008527
22 мая, сб
сб2223:00+30зюз1058100 0.0 1009410
02:00+29ссз116893 0.2 1008291
05:00+28з0174100 0.0 1008201
08:00+30зсз116393 0.0 1009785
11:00+35зсз434197 0.0 10081818
14:00+34зсз544465 0.0 10071592
17:00+33зсз424833 0.1 10061251
20:00+29ссз236230 0.1 1008425